Location: Ellerstadt
(49.4644°N, 8.2615°E)
Time: 03:31:06
(UTC+00:00)

APEX - Pass Details

Date: 03 March 2021
Orbit: 332 x 1081 km, 69.9° (Epoch: 11 April)

Event Time Altitude Azimuth Distance (km) Brightness Sun altitude
Rises 17:45:19 0° 325° (NW) 2,253 6.9 -6.0°
Reaches altitude 10° 17:47:27 10° 319° (NW) 1,338 5.9 -6.4°
Maximum altitude 17:50:11 44° 245° (WSW) 486 3.7 -6.8°
Drops below altitude 10° 17:52:46 10° 171° (S) 1,265 5.1 -7.2°
Sets 17:54:44 0° 164° (SSE) 2,109 6.2 -7.5°
